Regional Weather Roundup
Issued by NWS

Home | Current Version | Previous Version | Text Only | Print | Product List | Glossary Off
Versions: 1 2 3 4 5 6 7 8 9 10 11 12 13 14 15 16 17 18 19 20 21 22 23 24 25 26 27 28 29 30 31 32 33 34 35 36 37 38 39 40 41 42 43 44 45 46 47 48 49 50

000
ASUS43 KMKX 211300
RWRWI

WISCONSIN REGIONAL WEATHER ROUNDUP
NATIONAL WEATHER SERVICE MILWAUKEE/SULLIVAN WI
800 AM CDT MON MAY 21 2018

NOTE: "FAIR" INDICATES FEW OR NO CLOUDS BELOW 12,000 FEET WITH NO
SIGNIFICANT WEATHER AND/OR OBSTRUCTIONS TO VISIBILITY.

WIZ001-002-006>008-014>016-023>028-211400-
NORTHWEST WISCONSIN

CITY           SKY/WX    TMP DP  RH WIND       PRES   REMARKS
SUPERIOR ARPT  FAIR      44  42  90 CALM      30.17F
ASHLAND        FAIR      53  42  66 CALM      30.18F
HAYWARD        FAIR      52  42  69 N3        30.17F
SIREN          FAIR      53  42  66 CALM      30.14F
CUMBERLAND     FAIR      50  41  71 E6        30.14F
RICE LAKE      FAIR      54  39  57 NE7       30.16F
CHETEK         PTSUNNY   52  39  61 E7        30.15F
LADYSMITH      FAIR      52  34  50 E6        30.18S
EAU CLAIRE     NOT AVBL
MENOMONIE      CLOUDY    55  43  63 E10       30.13S
NEW RICHMOND   CLOUDY    55  44  65 E6        30.12F
OSCEOLA        CLOUDY    55  46  70 E5        30.15F
$$

WIZ003>005-009-010-017-018-211400-
NORTH CENTRAL WISCONSIN

CITY           SKY/WX    TMP DP  RH WIND       PRES   REMARKS
MANITOWISH WTR FAIR      49  41  71 CALM      30.19F
ARBOR VITAE    FAIR      53  39  59 E3        30.19F
WOODRUFF       FAIR      53  39  59 E3        30.19F
RHINELANDER    FAIR      53  38  56 E3        30.19F
EAGLE RIVER    FAIR      49  41  72 CALM      30.19F
LAND O LAKES   FAIR      49  36  61 CALM      30.22S
PHILLIPS       FAIR      46  37  69 CALM      30.19R
TOMAHAWK       FAIR      46  39  77 CALM      30.19S
MEDFORD        FAIR      47  33  58 E6        30.17R
MERRILL        FAIR      44  37  75 CALM      30.19S
$$

WIZ029-030-035-036-043>047-211400-
CENTRAL WISCONSIN

CITY           SKY/WX    TMP DP  RH WIND       PRES   REMARKS
WAUSAU         FAIR      50  30  46 E5        30.16S
MOSINEE        PTSUNNY   46  34  61 NE5       30.17F
MARSHFIELD     CLOUDY    50  32  50 E8        30.15S
STEVENS POINT  NOT AVBL
WAUPACA        FAIR      50  39  65 NE3       30.18S
WAUTOMA        NOT AVBL
WISC RAPIDS    FAIR      50  32  50 E7        30.17R
CAMP DOUGLAS   NOT AVBL
$$

WIZ011>013-019>022-031-037>040-048>050-211400-
NORTHEAST WISCONSIN

CITY           SKY/WX    TMP DP  RH WIND       PRES   REMARKS
ANTIGO         FAIR      50  32  50 E9        30.18F
SHAWANO        FAIR      51  39  63 E6        30.19S
OCONTO         FAIR      51  37  59 E3        30.20R
STURGEON BAY   FAIR      50  39  66 E9        30.20F
GREEN BAY      FAIR      52  41  66 E7        30.18S
MANITOWOC      FAIR      46  42  86 CALM      30.20S
APPLETON       CLOUDY    48  36  61 E6        30.17R
CLINTONVILLE   FAIR      49  36  61 NE5       30.18F
OSHKOSH        FAIR      52  46  80 E6        30.17R
$$

WIZ032>034-041-042-053>061-211400-
SOUTHWEST WISCONSIN

CITY           SKY/WX    TMP DP  RH WIND       PRES   REMARKS
LA CROSSE      CLOUDY    58  44  60 E6        30.11S
SPARTA         CLOUDY    53  44  72 E6        30.14S
VIROQUA        CLOUDY    52  44  72 E8        30.12S
BOSCOBEL       LGT RAIN  54  48  80 CALM      30.12R
PRAIRIE DU CHI LGT RAIN  51  49  92 E6        30.10F
PLATTEVILLE    CLOUDY    52  52 100 E13       30.10F
$$

WIZ056-057-062-063-064-067-068-211400-
SOUTH CENTRAL WISCONSIN

CITY           SKY/WX    TMP DP  RH WIND       PRES   REMARKS
REEDSBURG      CLOUDY    51  41  68 NE5       30.14S
BARABOO/DELLS  CLOUDY    50  40  67 E7        30.14S
LONE ROCK      CLOUDY    54  46  74 E10       30.13S
MINERAL POINT  CLOUDY    52  50  93 E12       30.11F
MADISON        LGT RAIN  51  47  86 E8        30.14S
MIDDLETON      CLOUDY    53  46  78 E6        30.14S
WATERTOWN      LGT RAIN  50  49  95 E3        30.16S
MONROE         RAIN      50  48  93 NE8       30.12S
JANESVILLE     RAIN      52  52 100 E10       30.13F
$$

WIZ051-052-058>065-066-070>072-211400-
SOUTHEAST WISCONSIN

CITY           SKY/WX    TMP DP  RH WIND       PRES   REMARKS
MILWAUKEE      LGT RAIN  49  47  93 NE3       30.18R FOG
WAUKESHA       LGT RAIN  46  45  93 NE5       30.18S
MILWAUKEE/TIMM CLOUDY    48  45  87 E5        30.19R
RACINE         RAIN      50  49  96 E8        30.19R FOG
BURLINGTON     RAIN      48  46  93 CALM      30.17R
KENOSHA        RAIN      51  49  92 E8        30.17R FOG
FOND DU LAC    PTSUNNY   52  44  74 CALM      30.17R
SHEBOYGAN      CLOUDY    47  44  90 E5        30.19R
WEST BEND      CLOUDY    46  45  93 E5        30.18R
JUNEAU         CLOUDY    51  47  84 E5        30.17R
$$

LSZ147-162-211400-
LAKE SUPERIOR

STATION/POSITION TIME  TEMP    WIND        PRES    WAVE
                       AIR SEA DIR/SP/G            HT/PER
                 (UTC) (F)     (DEG/KT/KT) (MB)    (FT/S)
W MID LAKE BUOY  1150   45 35  200/  4/  4 1022.6F   0
DEVILS ISLAND    1200   46     290/  1/  2 1022.5R
SAXON HARBOR     1230   49     340/  2/  2 1021.3S
$$

LMZ867-665-643>646-211400-
LAKE MICHIGAN

STATION/POSITION TIME  TEMP    WIND        PRES    WAVE
                       AIR SEA DIR/SP/G            HT/PER
                 (UTC) (F)     (DEG/KT/KT) (MB)    (FT/S)
NORTHPORT PIER   1240   47                 1023.4S
KEWAUNEE LAKESHO 1230   45      50/  5/  7 1022.0R
SHEBOYGAN LAKESH 1200   45      10/  6/  7 1022.6S
PORT WASHINGTON  1240   49      40/  5/  8 1023.0S
MILWAUKEE LAKESH 1230   47      50/  7/  8   N/A
KENOSHA   LAKESH 1200   47                 1021.3
$$

TC  - TEMPERATURE IN CELSIUS
VSB - VISIBILITY IN STATUTE MILES
WCI - WIND CHILL INDEX
HX  - HEAT INDEX




USA.gov is the U.S. government's official web portal to all federal, state and local government web resources and services.